Bismarck, ND

7:54 PM CST on November 18, 2017 (GMT -0600)
Bismarck Municipal

Weather History for KBIS - September, 2013

Change the Weather History Date:

Monday, September 16, 2013

  Actual Average Record
Temperature  
Mean Temperature 58 °F 58 °F  
Max Temperature 71 °F 72 °F 95 °F (1908)
Min Temperature 44 °F 45 °F 26 °F (1973)
Degree Days  
Heating Degree Days 7 8  
Month to date heating degree days 25 84  
Since 1 July heating degree days 53 139  
Cooling Degree Days 0 1  
Month to date cooling degree days 67 31  
Year to date cooling degree days 547 512  
Growing Degree Days 8 (Base 50)    
Moisture  
Dew Point 48 °F    
Average Humidity 69    
Maximum Humidity 93    
Minimum Humidity 44    
Precipitation  
Precipitation 0.00 in 0.05 in 0.76 in (1986)
Month to date precipitation 3.87 0.92  
Year to date precipitation 20.18 14.73  
Snow  
Snow 0.00 in - - ()
Month to date snowfall 0.0  
Snow Depth 0.00 in    
Sea Level Pressure  
Sea Level Pressure 30.18 in    
Wind  
Wind Speed 14 mph (SSE)    
Max Wind Speed 26 mph    
Max Gust Speed 33 mph    
Visibility 10 miles    
Events      
T = Trace of Precipitation, MM = Missing Value Source: NWS Daily Summary

Daily Weather History Graph

Daily Weather History Graph

Search for Another Location

Airport or City:

Trip Planner

Search our weather history database for the weather conditions in past years. The results will help you decide how hot, cold, wet, or windy it might be!

Date:

Astronomy

Sep. 16, 2013 Rise Set
Actual Time 7:22 AM CDT 7:52 PM CDT
Civil Twilight 6:51 AM CDT 8:22 PM CDT
Nautical Twilight 6:15 AM CDT 8:58 PM CDT
Astronomical Twilight 5:38 AM CDT 9:35 PM CDT
Moon 6:09 PM CDT (9/16) 4:01 AM CDT (9/16)
Length of Visible Light 13h 30m
Length of Day
12h 29m
Waxing Gibbous, 90% of the Moon is Illuminated
Sep 16
Waxing Gibbous
Sep 19
Full
Sep 26
Last Quarter
Oct 4
New
Oct 11
First Quarter

Hourly Weather History & Observations

Time (CDT) Temp. Windchill Dew Point Humidity Pressure Visibility Wind Dir Wind Speed Gust Speed Precip Events Conditions
12:52 AM 46.9 °F - 43.0 °F 86% 30.31 in 10.0 mi East 3.5 mph - N/A   Clear
1:52 AM 46.9 °F - 42.1 °F 83% 30.30 in 10.0 mi SE 5.8 mph - N/A   Clear
2:52 AM 46.0 °F 41.4 °F 43.0 °F 89% 30.29 in 10.0 mi SE 9.2 mph - N/A   Clear
3:52 AM 46.0 °F 41.4 °F 44.1 °F 93% 30.29 in 10.0 mi SE 9.2 mph - N/A   Clear
4:15 AM 46.0 °F 42.5 °F 45.0 °F 96% 30.27 in 10.0 mi SE 6.9 mph - N/A   Scattered Clouds
4:23 AM 46.9 °F - 46.0 °F 97% 30.27 in 10.0 mi SE 5.8 mph - N/A   Mostly Cloudy
4:52 AM 46.0 °F 42.5 °F 45.0 °F 96% 30.29 in 10.0 mi East 6.9 mph - N/A   Mostly Cloudy
5:52 AM 46.9 °F - 45.0 °F 93% 30.27 in 5.0 mi ESE 4.6 mph - N/A   Scattered Clouds
6:52 AM 46.0 °F 42.5 °F 44.1 °F 93% 30.27 in 10.0 mi SE 6.9 mph - N/A   Clear
7:52 AM 46.9 °F - 45.0 °F 93% 30.26 in 10.0 mi SSE 4.6 mph - N/A   Clear
8:52 AM 50.0 °F - 46.9 °F 89% 30.25 in 10.0 mi SSE 10.4 mph - N/A   Clear
9:26 AM 51.1 °F - 48.9 °F 92% 30.23 in 10.0 mi SE 8.1 mph - N/A   Mostly Cloudy
9:41 AM 53.1 °F - 50.0 °F 89% 30.23 in 10.0 mi South 9.2 mph - N/A   Overcast
9:52 AM 54.0 °F - 51.1 °F 90% 30.25 in 10.0 mi South 9.2 mph - N/A   Overcast
10:52 AM 57.0 °F - 52.0 °F 83% 30.24 in 10.0 mi SSE 16.1 mph - N/A   Overcast
11:34 AM 59.0 °F - 53.1 °F 81% 30.21 in 10.0 mi SSE 12.7 mph 20.7 mph N/A   Overcast
11:52 AM 61.0 °F - 53.1 °F 75% 30.22 in 10.0 mi South 15.0 mph 24.2 mph N/A   Overcast
12:52 PM 66.0 °F - 52.0 °F 60% 30.18 in 10.0 mi South 24.2 mph 29.9 mph N/A   Mostly Cloudy
1:04 PM 66.0 °F - 52.0 °F 60% 30.16 in 10.0 mi South 21.9 mph 29.9 mph N/A   Scattered Clouds
1:52 PM 68.0 °F - 52.0 °F 56% 30.15 in 10.0 mi South 20.7 mph 28.8 mph N/A   Partly Cloudy
2:52 PM 70.0 °F - 51.1 °F 51% 30.12 in 10.0 mi SSE 23.0 mph 29.9 mph N/A   Clear
3:52 PM 71.1 °F - 51.1 °F 49% 30.08 in 10.0 mi SSE 18.4 mph 32.2 mph N/A   Clear
4:52 PM 71.1 °F - 48.9 °F 45% 30.05 in 10.0 mi SSE 23.0 mph 29.9 mph N/A   Clear
5:52 PM 70.0 °F - 51.1 °F 51% 30.03 in 10.0 mi South 18.4 mph 27.6 mph N/A   Clear
6:52 PM 66.9 °F - 51.1 °F 57% 30.02 in 10.0 mi SSE 21.9 mph 26.5 mph N/A   Clear
7:52 PM 63.0 °F - 50.0 °F 63% 30.01 in 10.0 mi SSE 15.0 mph - N/A   Clear
8:52 PM 61.0 °F - 50.0 °F 67% 30.00 in 10.0 mi SE 15.0 mph 23.0 mph N/A   Clear
9:52 PM 60.1 °F - 50.0 °F 69% 29.99 in 10.0 mi SE 15.0 mph 24.2 mph N/A   Clear
10:52 PM 60.1 °F - 50.0 °F 69% 29.97 in 10.0 mi SSE 17.3 mph 28.8 mph N/A   Clear
11:52 PM 60.1 °F - 50.0 °F 69% 29.97 in 10.0 mi SSE 16.1 mph 24.2 mph N/A   Clear